Location: Asheville, NC
(35.6000°N, 82.5500°W)
Time: 00:20:25
(UTC-04:00)

Vanguard 2 - Pass Details

Date: 10 March 2018
Orbit: 553 x 2939 km, 32.9° (Epoch: 22 June)

Event Time Altitude Azimuth Distance (km) Brightness Sun altitude
Rises 07:58:40 0° 173° (S) 5,274 12.1 13.3°
Reaches altitude 10° 08:06:04 10° 144° (SE) 4,895 12.6 14.8°
Maximum altitude 08:09:57 12° 128° (SE) 5,031 13.3 15.6°
Drops below altitude 10° 08:14:08 10° 112° (ESE) 5,393 14.5 16.4°
Sets 08:23:44 0° 86° (E) 6,742 13.6 18.2°
